Domov               UVHVVR             MKGP            O straneh              
ZDRAVSTVENO VARSTVO RASTLIN
  MREŽA AGROMET. POSTAJ
 ► PROGNOSTIČNA OBVESTILA
AGROMETEOROLOŠKI PODATKI -
ARSO
OBVLADOVANJE TVEGANJ ZARADI
NEUGODNIH VREMENSKIH RAZMER
  ► NARAVNE NESREČE
  ► SUŠA/MOČA
  ► NAMAKANJE
  ► ŽLED (gozdarstvo)
KARTOGRAFSKI PRIKAZI
SPLETNE POVEZAVE
PROJEKTI IN PUBLIKACIJE

AGROMETEOROLOŠKA MREŽA: VREMENSKE POSTAJE IN FENOLOŠKA OPAZOVANJA

Pregled podatkov za lokacijo Sremič, meteorološka postaja 49592

Pregled senzorjev na lokaciji

ID Ime Zadnja
vrednost
Datum
zadnje
spremembe
Tip
senzorja
3945 Relativna vlaga 2 m (% RH) 31,91 % RH 19.10.2017 15:59 Generic 0 - 100 %
3946 Temperatura 2 m ( °C) 22,86 °C 19.10.2017 15:59 Generic -40 - +60 °C
3947 Omočenost lista (U) 0 U 19.10.2017 16:00 A730WET
3948 Padavine 0.2 mm (mm) 0 mm 19.10.2017 16:00 Generic 0.2 mm

Pregled podatkov zadnjih 24 ur

Zap.
št.
Datum in čas Sremič
Omočenost
lista
Padavine
0.2
mm
Relativna
vlaga
2
m
Temperatura
2
m
0 19.10.2017 15:00 0 0 31,91 22,86
1 19.10.2017 14:30 0 0 34,36 23,05
2 19.10.2017 14:00 0 0 38,13 23,7
3 19.10.2017 13:30 0 0 39,94 22,77
4 19.10.2017 13:00 0 0 40,06 21,94
5 19.10.2017 12:30 0 0 39,34 20,96
6 19.10.2017 12:00 0 0 42,21 20,15
7 19.10.2017 11:30 0 0 43,96 19,96
8 19.10.2017 11:00 0 0 45,96 19,07
9 19.10.2017 10:30 0 0 48,11 18,37
10 19.10.2017 10:00 0 0 47,53 17,18
11 19.10.2017 09:30 0 0 47,56 16,64
12 19.10.2017 09:00 0 0 50,33 15,86
13 19.10.2017 08:30 0 0 53,94 14,5
14 19.10.2017 08:00 0 0 57,7 13,36
15 19.10.2017 07:30 0 0 61,64 12,1
16 19.10.2017 07:00 0 0 62,5 11,83
17 19.10.2017 06:30 0 0 63,47 11,73
18 19.10.2017 06:00 0 0 65,46 11,56
19 19.10.2017 05:30 0 0 66,13 11,69
20 19.10.2017 05:00 0 0 69,28 11,48
21 19.10.2017 04:30 0 0 71,83 11,29
22 19.10.2017 04:00 0 0 70,21 11,8
23 19.10.2017 03:30 0 0 70,47 11,99
24 19.10.2017 03:00 0 0 69,8 12,34
25 19.10.2017 02:30 0 0 69,02 12,61
26 19.10.2017 02:00 0 0 70,29 12,54
27 19.10.2017 01:30 0 0 69,78 12,76
28 19.10.2017 01:00 0 0 68,65 12,9
29 19.10.2017 00:30 0 0 69,09 12,92
30 19.10.2017 00:00 0 0 69,82 12,86
31 18.10.2017 23:30 0 0 67,57 13,36
32 18.10.2017 23:00 0 0 66,93 13,37
33 18.10.2017 22:30 0 0 67,08 13,23
34 18.10.2017 22:00 0 0 63,97 13,81
35 18.10.2017 21:30 0 0 61,37 14,25
36 18.10.2017 21:00 0 0 59,26 14,76
37 18.10.2017 20:30 0 0 56,85 15,03
38 18.10.2017 20:00 0 0 55,77 15,36
39 18.10.2017 19:30 0 0 54,59 15,63
40 18.10.2017 19:00 0 0 51,71 16,26
41 18.10.2017 18:30 0 0 46,87 17,34
42 18.10.2017 18:00 0 0 45,98 17,57
43 18.10.2017 17:30 0 0 48,27 17,81
44 18.10.2017 17:00 0 0 50,84 18,26
45 18.10.2017 16:30 0 0 47,07 19,98
© 2011 Ministrstvo za kmetijstvo, gozdarstvo in prehrano. Vse pravice pridržane.